N2XP Weather Reports


time (UTC)temp
C
wind
direction
speed
KPH
gust
KPH
rain 1hr
cm
rain 24hr
cm
rain mn
cm
humidity
%
barometer
mb
20260510141558 17 207 0.0 9.7 0.00 0.66 0.00 85 1011.0
20260510140049 16 207 0.0 6.4 0.00 0.66 0.00 88 1010.9
20260510134545 15 148 0.0 11.3 0.00 0.66 0.00 92 1010.9
20260510133041 14 206 0.0 6.4 0.00 0.66 0.00 94 1011.0
20260510131535 13 196 0.0 8.0 0.00 0.66 0.00 97 1011.1
20260510130035 12 202 0.0 6.4 0.00 0.66 0.00 98 1011.2
20260510124533 11 213 0.0 4.8 0.00 0.66 0.00 98 1011.0
20260510123026 11 149 0.0 0.0 0.00 0.66 0.00 98 1010.8
20260510121523 11 149 0.0 0.0 0.00 0.66 0.00 98 1010.7
20260510120020 10 149 0.0 0.0 0.00 0.66 0.00 98 1010.6
20260510114517 10 149 0.0 0.0 0.00 0.66 0.00 98 1010.4
20260510113015 10 149 0.0 0.0 0.00 0.66 0.00 98 1010.2
20260510111516 10 149 0.0 0.0 0.00 0.66 0.00 98 1010.3
20260510110023 10 149 0.0 0.0 0.00 0.66 0.00 98 1010.3
20260510104514 9 149 0.0 0.0 0.00 0.66 0.00 98 1010.1
20260510103018 9 149 0.0 0.0 0.00 0.66 0.00 97 1009.8
20260510101512 9 149 0.0 0.0 0.00 0.66 0.00 97 1009.7
20260510100024 9 149 0.0 0.0 0.00 0.66 0.00 97 1009.8
20260510094514 9 149 0.0 0.0 0.00 0.66 0.00 97 1009.6
20260510093010 9 149 0.0 0.0 0.00 0.66 0.00 97 1009.9
20260510091509 9 149 0.0 0.0 0.00 0.66 0.00 97 1009.7
20260510090011 9 149 0.0 0.0 0.00 0.66 0.00 98 1009.8
20260510084508 9 149 0.0 0.0 0.00 0.66 0.00 97 1010.1
20260510083018 9 149 0.0 0.0 0.00 0.66 0.00 97 1010.1
20260510081507 9 154 0.0 6.4 0.00 0.66 0.00 98 1010.3
20260510080021 9 340 3.2 12.9 0.00 0.66 0.00 97 1010.1
20260510074504 8 271 1.6 22.5 0.00 0.66 0.00 97 1009.8
20260510073002 9 221 0.0 0.0 0.00 0.66 0.00 97 1009.3
20260510071501 9 221 0.0 0.0 0.00 0.66 0.00 97 1009.3
20260510070100 9 221 0.0 0.0 0.00 0.66 0.00 97 1009.3
20260510064600 9 221 0.0 0.0 0.00 0.66 0.00 97 1009.4
20260510063058 9 221 0.0 0.0 0.00 0.66 0.00 97 1009.6
20260510061557 10 221 0.0 0.0 0.00 0.66 0.00 97 1009.7
20260510060056 10 221 0.0 0.0 0.00 0.66 0.00 97 1009.5
20260510054555 10 221 0.0 0.0 0.00 0.66 0.00 97 1009.3
20260510053056 10 221 0.0 0.0 0.00 0.66 0.00 97 1009.3
20260510051553 10 221 0.0 0.0 0.00 0.66 0.00 97 1009.3
20260510050051 10 221 0.0 0.0 0.00 0.66 0.00 97 1009.3
20260510044557 10 221 0.0 0.0 0.00 0.66 0.00 97 1009.4
20260510043103 10 221 0.0 0.0 0.00 0.66 0.00 97 1009.5
20260510041549 10 221 0.0 0.0 0.00 0.66 0.00 97 1009.6
20260510040056 10 221 0.0 0.0 0.00 0.66 0.00 97 1009.5
20260510034548 10 221 0.0 0.0 0.00 0.66 0.00 97 1009.3
20260510033058 10 221 0.0 0.0 0.00 0.66 0.66 97 1009.2
20260510031549 10 221 0.0 0.0 0.00 0.66 0.66 97 1009.2
20260510030046 10 221 0.0 0.0 0.00 0.66 0.66 96 1009.0
20260510024542 10 221 0.0 0.0 0.00 0.66 0.66 96 1009.1
20260510023042 10 221 0.0 0.0 0.00 0.66 0.66 96 1009.1
20260510021541 10 221 0.0 0.0 0.00 0.66 0.66 96 1009.2
20260510020044 10 221 0.0 0.0 0.00 0.66 0.66 96 1009.2
20260510014545 10 221 0.0 0.0 0.00 0.66 0.66 96 1009.2
20260510013039 10 221 0.0 0.0 0.00 0.66 0.66 96 1009.0
20260510011542 10 221 0.0 0.0 0.00 0.66 0.66 96 1009.2
20260510010037 11 221 0.0 0.0 0.00 0.66 0.66 96 1008.9
20260510004538 11 221 0.0 0.0 0.00 0.66 0.66 96 1008.5
20260510003037 11 221 0.0 0.0 0.00 0.66 0.66 96 1008.4
20260510001536 11 221 0.0 0.0 0.00 0.66 0.66 96 1008.3
20260510000056 11 221 0.0 0.0 0.00 0.66 0.66 95 1008.4
20260509234634 11 221 0.0 0.0 0.00 0.66 0.66 95 1008.4
20260509233034 11 221 0.0 0.0 0.00 0.66 0.66 95 1008.2
20260509231532 12 221 0.0 0.0 0.00 0.66 0.66 95 1008.0
20260509230035 12 221 0.0 0.0 0.00 0.66 0.66 95 1008.1
20260509224529 12 182 0.0 0.0 0.00 0.66 0.66 95 1008.1
20260509223059 12 49 0.0 0.0 0.00 0.66 0.66 95 1008.1
20260509221549 12 49 0.0 0.0 0.00 0.66 0.66 95 1008.2
20260509220047 12 58 0.0 0.0 0.00 0.66 0.66 96 1008.2
20260509214547 12 58 0.0 1.6 0.05 0.66 0.66 95 1008.2
20260509213046 12 58 0.0 0.0 0.08 0.66 0.66 96 1008.2
20260509211545 11 58 0.0 0.0 0.13 0.66 0.66 96 1008.4
20260509210049 11 58 0.0 0.0 0.15 0.66 0.66 96 1008.4
20260509204550 11 58 0.0 0.0 0.18 0.61 0.61 96 1008.4
20260509203043 11 58 0.0 0.0 0.18 0.58 0.58 96 1008.4
20260509201546 11 58 0.0 0.0 0.18 0.53 0.53 95 1008.4
20260509200052 11 58 0.0 0.0 0.18 0.48 0.48 95 1008.6
20260509194538 11 347 0.0 0.0 0.20 0.43 0.43 95 1009.0
20260509193036 11 347 0.0 0.0 0.23 0.43 0.41 95 1009.1
20260509191535 11 191 0.0 0.0 0.23 0.38 0.36 94 1009.3
20260509190035 11 184 0.0 4.8 0.23 0.33 0.30 94 1009.3
20260509184544 12 281 0.0 9.7 0.20 0.25 0.23 93 1009.4
20260509183034 12 205 0.0 0.0 0.15 0.20 0.18 93 1009.2
20260509181532 12 225 0.0 4.8 0.13 0.15 0.15 91 1009.2
20260509180029 12 196 0.0 1.6 0.05 0.10 0.08 90 1009.8
20260509174534 13 179 0.0 9.7 0.03 0.05 0.05 88 1009.9
20260509173027 14 188 1.6 11.3 0.00 0.05 0.03 85 1009.9
20260509171532 14 238 3.2 14.5 0.00 0.05 0.03 83 1009.6
20260509170027 14 238 0.0 12.9 0.00 0.05 0.03 81 1009.5
20260509164526 15 233 4.8 19.3 0.00 0.05 0.03 78 1009.4
20260509163026 15 213 3.2 14.5 0.00 0.05 0.03 77 1009.5
20260509161527 15 224 4.8 22.5 0.00 0.05 0.03 78 1009.7
20260509160021 14 247 1.6 16.1 0.03 0.05 0.03 82 1009.6
20260509154518 14 248 3.2 19.3 0.03 0.05 0.03 82 1010.0
20260509153030 14 193 3.2 14.5 0.03 0.05 0.03 83 1010.0
20260509151512 13 134 4.8 12.9 0.03 0.05 0.03 86 1010.1
20260509150010 13 225 0.0 0.0 0.00 0.03 0.00 87 1010.2
20260509144522 13 225 0.0 4.8 0.00 0.03 0.00 87 1010.3
20260509143038 13 216 0.0 8.0 0.00 0.03 0.00 87 1010.1